STARLINK-32464 (62140 NORAD) Tracking and Keplerian Element Data

This shows tracking and keplerian element data for the satellite.

Feedback or suggestion? Click here.




ElementValue
Catalog62140
NameSTARLINK-32464
Epoch Orbit1133
Epoch Day34.81434512
Epoch Year2025
RAAN257.9669
Inclination42.9991
Eccentricity0.0001496
Argument of Perigee257.355
Mean Anonmoly102.7136
Mean Motion15.32104757
Decay Rate2.056E-05
L11 62140U 24224B 25034.81434512 .00002056 00000+0 73624-4 0 9997
L22 62140 42.9991 257.9669 0001496 257.3550 102.7136 15.32104757 11333



Live tracking and technical data element details for STARLINK-32464 (NORAD 62140). STARLINK-32464 can be tracked NOW for your location showing map with azimuth and elevation plus other details from your city location.







IsCatalogInMostPopularTable: catalog: 62140, numindb: 19
Update: records affected: 1



GetName: 62140 STARLINK-32464

Hit Count: updated at: Mon, 19 May 2025 03:07:56 GMT